This demonstration page uses our WeatherBlox Daily Observations layout. Learn more.

Hourly Observations for May 30, 2015

Temp ( °F °C ) Dew Point ( °F °C ) Humidity (%) Winds ( mph kmh ) Pressure ( in mb ) Visibility ( mi km ) Precip ( " mm )
12:15 am 00:15 Cloudy 50 10.1 46 7.6 85 85 N 24 39 30.21 1023 10 16.0934 0 0
12:35 am 00:35 Cloudy 50 10.1 46 7.6 85 85 N 18 30 30.21 1023 10 16.0934 0 0
12:55 am 00:55 Cloudy 50 10 46 7.7 86 86 N 17 28 30.21 1023 10 16.0934 0 0
1:15 am 01:15 Cloudy 50 9.9 46 7.5 85 85 N 16 26 30.21 1023 10 16.0934 0 0
1:35 am 01:35 Cloudy 50 9.8 44 6.4 80 80 N 18 30 30.21 1023 10 16.0934 0 0
1:55 am 01:55 Cloudy 49 9.7 43 6.1 78 78 N 16 26 30.21 1023 10 16.0934 0 0
2:15 am 02:15 Cloudy 49 9.5 43 5.9 78 78 N 17 28 30.21 1023 10 16.0934 0 0
2:35 am 02:35 Cloudy 49 9.5 43 6 79 79 N 15 24 30.21 1023 10 16.0934 0 0
2:55 am 02:55 Cloudy 49 9.3 41 5.1 75 75 N 16 26 30.21 1023 10 16.0934 0 0
3:15 am 03:15 Cloudy 49 9.2 42 5.3 77 77 N 14 22 30.21 1023 10 16.0934 0 0
3:35 am 03:35 Cloudy 48 9.1 41 5.1 76 76 N 13 20 30.21 1023 10 16.0934 0 0
3:55 am 03:55 Cloudy 48 9.1 41 5 76 76 NNW 13 20 30.21 1023 10 16.0934 0 0
4:15 am 04:15 Cloudy 48 9 41 5.1 77 77 N 10 17 30.21 1023 10 16.0934 0 0
4:35 am 04:35 Cloudy 48 9 41 5.1 77 77 N 10 17 30.24 1024 10 16.0934 0 0
4:55 am 04:55 Mostly Cloudy 47 8.6 41 5 78 78 N 12 19 30.24 1024 10 16.0934 0 0
5:15 am 05:15 Clear 46 8 41 5 82 82 N 14 22 30.21 1023 10 16.0934 0 0
5:35 am 05:35 Clear 46 7.8 41 4.8 82 82 N 14 22 30.21 1023 10 16.0934 0 0
5:55 am 05:55 Clear 46 7.5 40 4.6 82 82 N 13 20 30.21 1023 10 16.0934 0 0
6:15 am 06:15 Sunny 45 7.2 40 4.5 83 83 NNW 13 20 30.27 1025 10 16.0934 0 0
6:35 am 06:35 Sunny 45 7.1 40 4.5 84 84 NNW 13 20 30.27 1025 10 16.0934 0 0
6:55 am 06:55 Sunny 45 7.1 40 4.7 85 85 NNW 10 17 30.27 1025 10 16.0934 0 0
7:15 am 07:15 Sunny 46 7.5 40 4.6 82 82 NNW 13 20 30.3 1026 10 16.0934 0 0
7:35 am 07:35 Sunny 46 7.8 40 4.6 80 80 N 13 20 30.3 1026 10 16.0934 0 0
7:55 am 07:55 Sunny 47 8.1 40 4.6 79 79 N 13 20 30.3 1026 10 16.0934 0 0
8:15 am 08:15 Sunny 47 8.5 40 4.6 77 77 N 15 24 30.27 1025 10 16.0934 0 0
8:35 am 08:35 Sunny 48 9 40 4.5 74 74 N 16 26 30.27 1025 10 16.0934 0 0
8:55 am 08:55 Sunny 49 9.2 39 3.9 70 70 N 16 26 30.27 1025 10 16.0934 0 0
9:15 am 09:15 Sunny 50 10 39 3.9 66 66 N 17 28 30.27 1025 10 16.0934 0 0
9:35 am 09:35 Sunny 50 10.2 38 3.2 62 62 N 12 19 30.27 1025 10 16.0934 0 0
9:55 am 09:55 Sunny 51 10.5 38 3.3 61 61 N 16 26 30.27 1025 10 16.0934 0 0
10:15 am 10:15 Sunny 52 11.2 40 4.3 63 63 N 16 26 30.27 1025 10 16.0934 0 0
10:35 am 10:35 Mostly Cloudy 53 11.5 41 4.8 64 64 N 15 24 30.24 1024 10 16.0934 0 0
10:55 am 10:55 Mostly Cloudy 54 12.1 41 5.1 63 63 N 16 26 30.24 1024 10 16.0934 0 0
11:15 am 11:15 Partly Cloudy 54 12.3 41 4.8 60 60 N 14 22 30.24 1024 10 16.0934 0 0
11:35 am 11:35 Partly Cloudy 55 12.9 41 5.2 60 60 N 12 19 30.24 1024 10 16.0934 0 0
11:55 am 11:55 Partly Cloudy 56 13.2 41 4.8 57 57 N 14 22 30.24 1024 10 16.0934 0 0
12:15 pm 12:15 Sunny 57 13.7 41 5.2 57 57 N 14 22 30.24 1024 10 16.0934 0 0
12:35 pm 12:35 Sunny 58 14.2 41 5.1 55 55 N 13 20 30.24 1024 10 16.0934 0 0
12:55 pm 12:55 Sunny 59 14.8 42 5.4 54 54 NNE 16 26 30.21 1023 10 16.0934 0 0
1:15 pm 13:15 Sunny 59 15 42 5.3 53 53 NNE 14 22 30.21 1023 10 16.0934 0 0
1:35 pm 13:35 Sunny 60 15.7 42 5.5 51 51 NE 12 19 30.21 1023 10 16.0934 0 0
1:55 pm 13:55 Sunny 60 15.6 41 5.1 50 50 N 10 17 30.18 1022 10 16.0934 0 0
2:15 pm 14:15 Sunny 62 16.4 42 5.8 50 50 NE 10 17 30.18 1022 10 16.0934 0 0
2:35 pm 14:35 Sunny 62 16.4 42 5.4 48 48 NE 13 20 30.18 1022 10 16.0934 0 0
2:55 pm 14:55 Sunny 62 16.8 41 5.2 47 47 N 5 7 30.18 1022 10 16.0934 0 0
3:15 pm 15:15 Sunny 63 17 41 5.1 46 46 NNE 6 9 30.18 1022 10 16.0934 0 0
3:35 pm 15:35 Sunny 63 17.4 42 5.5 46 46 NE 6 9 30.18 1022 10 16.0934 0 0
3:55 pm 15:55 Sunny 64 17.5 39 4 41 41 N 8 13 30.18 1022 10 16.0934 0 0
4:15 pm 16:15 Sunny 64 18 40 4.7 42 42 N 7 11 30.18 1022 10 16.0934 0 0
4:35 pm 16:35 Sunny 65 18.4 42 5.4 43 43 ENE 3 6 30.12 1020 10 16.0934 0 0
4:55 pm 16:55 Sunny 65 18.5 41 5.2 42 42 NNE 9 15 30.12 1020 10 16.0934 0 0
5:15 pm 17:15 Sunny 65 18.6 39 4 38 38 NE 8 13 30.12 1020 10 16.0934 0 0
5:35 pm 17:35 Sunny 65 18.6 38 3.6 37 37 NE 9 15 30.12 1020 10 16.0934 0 0
5:55 pm 17:55 Sunny 65 18.5 39 3.8 38 38 Calm 30.12 1020 10 16.0934 0 0
6:15 pm 18:15 Sunny 65 18.6 38 3.4 37 37 NNE 9 15 30.12 1020 10 16.0934 0 0
6:35 pm 18:35 Sunny 65 18.5 39 3.9 38 38 NE 9 15 30.09 1019 10 16.0934 0 0
6:55 pm 18:55 Sunny 65 18.2 37 2.8 36 36 ENE 6 9 30.09 1019 10 16.0934 0 0
7:15 pm 19:15 Sunny 64 18 36 2.2 35 35 NE 8 13 30.09 1019 10 16.0934 0 0
7:35 pm 19:35 Sunny 64 17.9 37 2.5 36 36 NNE 8 13 30.09 1019 10 16.0934 0 0
7:55 pm 19:55 Sunny 63 17.3 38 3.4 40 40 NE 7 11 30.12 1020 10 16.0934 0 0
8:15 pm 20:15 Sunny 62 16.9 38 3.2 40 40 NNE 9 15 30.12 1020 10 16.0934 0 0
8:35 pm 20:35 Sunny 61 16.1 38 3.6 43 43 NE 8 13 30.12 1020 10 16.0934 0 0
8:55 pm 20:55 Sunny 58 14.7 40 4.3 50 50 NE 6 9 30.12 1020 10 16.0934 0 0
9:15 pm 21:15 Clear 56 13.5 40 4.4 54 54 NE 5 7 30.12 1020 10 16.0934 0 0
9:35 pm 21:35 Clear 55 13 40 4.5 57 57 ENE 7 11 30.15 1021 10 16.0934 0 0
9:55 pm 21:55 Clear 55 12.5 40 4.5 58 58 E 7 11 30.15 1021 10 16.0934 0 0
10:15 pm 22:15 Clear 53 11.6 41 4.8 63 63 E 8 13 30.18 1022 10 16.0934 0 0
10:35 pm 22:35 Clear 53 11.5 40 4.7 63 63 E 8 13 30.18 1022 10 16.0934 0 0
10:55 pm 22:55 Clear 54 12.4 40 4.5 59 59 E 9 15 30.18 1022 10 16.0934 0 0
11:15 pm 23:15 Clear 53 11.7 40 4.5 62 62 ENE 6 9 30.18 1022 10 16.0934 0 0
11:35 pm 23:35 Clear 51 10.5 40 4.5 67 67 ENE 5 7 30.18 1022 10 16.0934 0 0
11:55 pm 23:55 Clear 49 9.6 40 4.5 71 71 ENE 5 7 30.21 1023 10 16.0934 0 0

Powered by AerisWeather